Find KUIPER-00432

NORAD ID: 68937 Int'l Des: 2026-098U Owner: KUIP Country: US Constellation: amazon-leo operational
LEOCIRCULAR

Live Position

Loading 3D Globe...

About KUIPER-00432

Description loading...

Upcoming Passes

Passes for default location (London). Set your location on the main map for personalized predictions.

Altitude History

Loading altitude history...

Two-Line Element Set

1 68937U 26098U 26125.91668981 .00037120 00000-0 11247-2 0 9992
2 68937 51.8753 271.4124 0011737 356.1267 25.2255 15.33731775 1738
Epoch: May 5, 2026 • Age: 9 hours

Current Status

Altitude 474.7 km
Velocity 7.62 km/s
Sub-Earth Point -8.55°S, 133.97°E
Launch Date Apr 30, 2026
Age 6 days
Type internet

Technical Details

Classification Payload
Mass 490.00 kg
Dry Mass 490.00 kg
Total Mass 490.00 kg
Length 1.80 m
Diameter 0.70 m
Span 5.00 m
Shape Box + 2 pan
Manufacturer KUIP
Bus Type Kuiper
Phase Status In Orbit
Owner/State KUIP/US

Most Searched